Regional Weather Roundup
Issued by NWS San Angelo, TX

Home | Current Version | Previous Version | Text Only | Print | Product List | Glossary On
Versions: 1 2 3 4 5 6 7 8 9 10 11 12 13 14 15 16 17 18 19 20 21 22 23 24 25 26 27 28 29 30 31 32 33 34 35 36 37 38 39 40 41 42 43 44 45 46 47 48 49 50
000
ASUS44 KSJT 260810
RWRSJT
WEST CENTRAL TEXAS REGIONAL WEATHER ROUNDUP
NATIONAL WEATHER SERVICE SAN ANGELO TX
200 AM CST MON JAN 26 2015

NOTE: "FAIR" INDICATES FEW OR NO CLOUDS BELOW 12,000 FEET WITH NO
SIGNIFICANT WEATHER AND/OR OBSTRUCTIONS TO VISIBILITY.

TXZ049-054-064>066-071>073-076>078-098-099-113-114-127-128-139-140-
154-155-168>170-260900
...LOCATIONS ACROSS WEST CENTRAL TEXAS...

CITY           SKY/WX    TMP DP  RH WIND       PRES   REMARKS
SAN ANGELO     CLEAR     38  33  82 CALM      30.25F
ABILENE        CLEAR     42  29  59 SW7       30.24F WCI  38
DYESS AFB      CLEAR     46  31  57 SW7       30.23F
JUNCTION       CLEAR     35  31  85 W5        30.25F WCI  31
SWEETWATER     CLEAR     46  31  56 W10       30.28S
BROWNWOOD      PTCLDY    36  32  87 CALM      30.24S
COLEMAN        SUNNY     44  32  63 CALM      30.24S
SONORA         PTCLDY    32  30  93 CALM      30.32R
OZONA          FAIR      32  28  86 N5        30.31R WCI  27
BRADY          CLEAR     39  32  75 W7        30.22S WCI  34
$$

TEXAS PANHANDLE/OKLAHOMA PANHANDLE

CITY           SKY/WX    TMP DP  RH WIND       PRES   REMARKS
AMARILLO       CLEAR     39  31  72 W12       30.25S WCI  32
BORGER         CLEAR     40  31  70 SW10      30.22S WCI  33
CANADIAN       CLEAR     41  34  77 SW5       30.18F WCI  38
DALHART        CLEAR     37  29  72 W13       30.25S WCI  29
DUMAS          SUNNY     34  29  82 W15       30.24S WCI  24
GUYMON         NOT AVBL
HEREFORD       SUNNY     35  32  88 W9        30.28S WCI  28
PAMPA          SUNNY     36  32  85 W10       30.22S WCI  28
PERRYTON         N/A     34  31  88 W10       30.17F WCI  26
$$

SOUTHERN PANHANDLE/SOUTH PLAINS/ROLLING PLAINS

CITY           SKY/WX    TMP DP  RH WIND       PRES   REMARKS
LUBBOCK        CLEAR     33  29  85 W9        30.26F WCI  25
SNYDER         PTCLDY   N/A N/A N/A W6        30.27F
CHILDRESS      CLEAR     41  32  70 W5        30.22S WCI  38
SEMINOLE       SUNNY     35  28  78 NW9       30.28F WCI  27
$$

PERMIAN BASIN

CITY           SKY/WX    TMP DP  RH WIND       PRES   REMARKS
MIDLAND        CLEAR     38  30  73 NW6       30.26F WCI  33
ODESSA         CLEAR     42  27  55 NW5       30.26F WCI  39
WINK           PTCLDY    35  27  72 NW5       30.27F WCI  31
$$

FAR WEST/SOUTHWEST MOUNTAINS/TRANS PECOS

CITY           SKY/WX    TMP DP  RH WIND       PRES   REMARKS
ALPINE         PTSUNNY   32  29  88 SW6       30.38F WCI  26
DRYDEN           N/A     45  33  63 W9        30.27R
EL PASO        MOCLDY    40  30  67 N8        30.30R WCI  34
FORT STOCKTON  MOCLDY    41  32  70 SW13      30.29R WCI  34
GUADALUPE PASS NOT AVBL
MARFA          CLOUDY    28  25  86 NW5       30.34S WCI  23
PECOS          PTSUNNY   34  30  86 W5        30.29F WCI  30
$$

DALLAS/FORT WORTH METROPLEX

CITY           SKY/WX    TMP DP  RH WIND       PRES   REMARKS
DFW AIRPORT    CLEAR     42  26  53 NW8       30.19F WCI  37
FTW MEACHAM    CLEAR     46  26  45 W3        30.20F
DAL-EXECUTIVE  CLEAR     46  26  45 NW6       30.19S
GRAND PRAIRIE  CLEAR     47  28  47 NW3       30.22S
ADDISON        CLEAR     44  30  58 CALM      30.22S
MESQUITE       SUNNY     41  30  64 W6        30.21R WCI  37
LANCASTER      SUNNY     38  26  62 W5        30.22S WCI  34
$$

NORTH CENTRAL TEXAS

CITY           SKY/WX    TMP DP  RH WIND       PRES   REMARKS
SHRMAN/DENISON SUNNY     35  31  85 CALM      30.22R
GAINESVILLE    CLEAR     35  28  77 W3        30.23R
BRIDGEPORT     SUNNY     35  27  73 W3        30.23F
DENTON         CLEAR     37  27  67 NW3       30.21R
WAXAHACHIE     SUNNY     43  28  56 W5        30.22S
GRANBURY       SUNNY     38  30  73 CALM      30.23F
$$

WESTERN NORTH TEXAS

CITY           SKY/WX    TMP DP  RH WIND       PRES   REMARKS
WICHITA FALLS  CLEAR     39  26  59 W3        30.21S
VERNON         PTSUNNY   38  29  69 CALM      30.22S
BRECKENRIDGE   SUNNY     40  31  70 S3        30.23S
COMANCHE       CLEAR     50  32  49 W6        30.22F
$$

CENTRAL AND SOUTH CENTRAL TEXAS

CITY           SKY/WX    TMP DP  RH WIND       PRES   REMARKS
AUSTIN/BERGSTM CLEAR     46  33  60 W7        30.20R
WACO           CLEAR     37  30  75 CALM      30.21S
HILLSBORO      SUNNY     41  27  58 N5        30.21S WCI  38
TEMPLE         CLEAR     39  28  65 NW5       30.21R WCI  36
KILLEEN-GRAY   CLEAR     53  29  40 NW7       30.21S
FORT HOOD      CLEAR     48  31  51 MISG      30.21R
GEORGETOWN     CLEAR     45  30  57 NW8       30.20S
LAGO VISTA     FAIR      55  28  35 W5        30.20S
SAN MARCOS     CLEAR     46  30  53 W6        30.21S
NEW BRAUNFELS  CLEAR     45  35  68 W8        30.21S
RANDOLPH AFB   CLEAR     44  32  63 NW1       30.22S
SAN ANTONIO    CLEAR     43  34  70 NW5       30.23S
STINSON        CLEAR     43  36  76 CALM      30.22S
PLEASANTON     NOT AVBL
LA GRANGE      CLEAR     47  35  63 SW7       30.17S
GIDDINGS       NOT AVBL
$$

EAST TEXAS

CITY           SKY/WX    TMP DP  RH WIND       PRES   REMARKS
PARIS          CLEAR     39  28  65 NW6       30.17R WCI  35
CLARKSVILLE    NOT AVBL
TYLER          CLEAR     43  29  57 NW6       30.17S WCI  39
LONGVIEW       CLEAR     44  30  57 NW8       30.15S WCI  39
PALESTINE      SUNNY     42  31  64 NW5       30.20S WCI  39
NACOGDOCHES    CLEAR     43  27  52 N7        30.17R WCI  39
$$

TEXAS HILL COUNTRY AND EDWARDS PLATEAU

CITY           SKY/WX    TMP DP  RH WIND       PRES   REMARKS
LLANO          SUNNY     39  32  75 CALM      30.26S
HORSESHOE BAY  FAIR      48  31  52 W5        30.21S
KERRVILLE      CLEAR     36  32  86 W3        30.24F
FREDERICKSBRG  CLEAR     37  31  79 CALM      30.23S
ROCKSPRINGS    NOT AVBL
HONDO          PTCLDY    40  33  76 NW9       30.26S WCI  34
UVALDE         PTSUNNY   47  34  60 CALM      30.25S
DEL RIO        CLOUDY    45  38  76 NW5       30.26F
$$

SOUTHEAST TEXAS

CITY           SKY/WX    TMP DP  RH WIND       PRES   REMARKS
COLLEGE STN    CLEAR     48  30  49 NW5       30.19S
CALDWELL       SUNNY     48  28  46 NW6       30.23S
CROCKETT       SUNNY     45  32  61 NW3       30.22R
BRENHAM        CLEAR     54  32  43 N12       30.19S
HUNTSVILLE     FAIR      49  27  42 NW7       30.18R
CONROE         CLEAR     50  27  40 NW9       30.18R
HOUSTON BUSH   PTCLDY    55  27  34 N16       30.15S
HOUSTON HOBBY  PTCLDY    54  28  36 N10       30.14R
PERLAND        CLEAR     47  32  56 CALM      30.16R
WHARTON        SUNNY     46  38  73 W7        30.20R
$$

THE UPPER TEXAS COAST

CITY           SKY/WX    TMP DP  RH WIND       PRES   REMARKS
ORANGE         SUNNY     55  28  36 NW13G18   30.13S
PORT ARTHUR    CLEAR     55  30  38 NW14G23   30.12R
GALVESTON      CLEAR     51  37  58 W3        30.16R
ANGLETON       CLEAR     48  34  58 CALM      30.16F
BAY CITY       SUNNY     46  40  80 W3        30.19S
$$

TEXAS COASTAL BEND, RIO GRANDE PLAINS DEEP SOUTH TEXAS

CITY           SKY/WX    TMP DP  RH WIND       PRES   REMARKS
VICTORIA       CLEAR     45  38  76 NW8       30.21S
BEEVILLE       FAIR      52  37  56 NW5       30.23R
ROCKPORT       PTCLDY    53  44  71 NW6       30.21S
PORT ARANSAS   MOSUNNY   52  44  76 NW3       30.21S
PORT LAVACA    SUNNY     47  41  77 W6        30.21S
CORPUS CHRISTI MOCLDY    48  42  80 NW8       30.22R
KINGSVILLE NAS PTCLDY    49  42  77 W5        30.23R
COTULLA        MOCLDY    47  42  83 NW3       30.25S
LAREDO         NOT AVBL
BROWNSVILLE    PTCLDY    51  45  79 W5        30.23R
PORT ISABEL    PTCLDY    53  46  77 W8        30.23R
HEBBRONVILLE   MOSUNNY   51  39  63 W7        30.25S
MCALLEN        MOCLDY    53  44  71 CALM      30.25R
WESLACO        MOCLDY    53  43  68 W3        30.24S
FALFURRIAS     MOSUNNY   49  38  66 CALM      30.24R
EDINBURG       CLOUDY    53  40  63 NW6       30.25R
$$



USA.gov is the U.S. government's official web portal to all federal, state and local government web resources and services.